sat.trackr.live / text

‹ back to catalog

STARLINK-31939

NORAD 60026 · 2024-111L

PAYLOAD ACTIVE UNKNOWN

§ Identity

Operator
Country
US
Launch date
2024-06-08
Launch site
AFETR
Launch vehicle
Mass (kg)
RCS (m²)

Purposes: comms

External: N2YO · Heavens-Above · Gunter

§ Orbital elements

Epoch: 2026-09-21T07:52:12.322560Z

Period
93.85 min
Inclination
53.1605°
Eccentricity
0.0001405
Mean motion
15.34386921 rev/d
Perigee alt
461.8 km
Apogee alt
463.7 km
Semi-major
6,840.9 km
B*
1.3610e-6
RAAN
245.6973°
Arg perigee
86.6117°
Mean anomaly
273.5046°
Rev number
12,900

§ Raw data

STARLINK-319391 60026U 24111L   26264.32792040 -.00000330  00000+0  13610-5 0  99922 60026  53.1605 245.6973 0001405  86.6117 273.5046 15.34386921129002

JSON: /api/v1/satellites/60026 · /tle

For live sub-satellite position, see the globe view (requires WebGL).

§ Visibility from observer

Set your observer location to see the next 7 days of passes ≥ 10°. The values pass through the URL so the page stays shareable.

No JS? Fill the form by hand. The geolocation button needs JavaScript.